This is the latest recevied weather packets stored in our database for station/object N9MXT-13. If no packets are shown the sender has not sent any weather packets the latest 10 day(s).
| Time | Temp. | Humidity | Pressure | Rain* | Wind** | Luminosity | Snow |
|---|---|---|---|---|---|---|---|
| 1778035801 | 10.56° C | 51% | 1010.2 hPa | 0 mm | - | - | - |
| 1778034001 | 10.56° C | 51% | 1009.9 hPa | 0 mm | - | - | - |
| 1778033700 | 10.56° C | 51% | 1009.9 hPa | 0 mm | - | - | - |
| 1778033100 | 10.56° C | 49% | 1009.7 hPa | 0 mm | - | - | - |
| 1778032500 | 10.56° C | 48% | 1009.5 hPa | 0 mm | - | - | - |
| 1778031900 | 10.56° C | 49% | 1009.3 hPa | 0 mm | - | - | - |
| 1778031601 | 11.11° C | 48% | 1009.1 hPa | 0 mm | - | - | - |
| 1778026800 | 12.22° C | 44% | 1008.4 hPa | 0 mm | - | - | - |
| 1778025604 | 12.22° C | 44% | 1008.5 hPa | 0 mm | - | - | - |
| 1778024700 | 12.78° C | 43% | 1008.4 hPa | 0 mm | - | - | - |
| 1778023500 | 12.78° C | 43% | 1008.4 hPa | 0 mm | - | - | - |
| 1778021399 | 12.78° C | 42% | 1008.8 hPa | 0 mm | - | - | - |
| 1778020500 | 12.78° C | 41% | 1008.9 hPa | 0 mm | - | - | - |
| 1778019604 | 12.78° C | 39% | 1008.8 hPa | 0 mm | - | - | - |
| 1778017800 | 12.78° C | 42% | 1009 hPa | 0 mm | - | - | - |
| 1778017201 | 12.78° C | 40% | 1008.8 hPa | 0 mm | - | - | - |
| 1778014805 | 13.33° C | 38% | 1008.9 hPa | 0 mm | - | - | - |
| 1778014500 | 13.33° C | 37% | 1008.9 hPa | 0 mm | - | - | - |
| 1778011800 | 13.33° C | 38% | 1009.1 hPa | 0 mm | - | - | - |
| 1778011204 | 13.33° C | 37% | 1009.2 hPa | 0 mm | - | - | - |
| 1778010600 | 13.33° C | 39% | 1009.2 hPa | 0 mm | - | - | - |
| 1778009401 | 12.78° C | 36% | 1009.2 hPa | 0 mm | - | - | - |
| 1778007604 | 13.33° C | 34% | 1009.5 hPa | 0 mm | - | - | - |
| 1778007300 | 13.33° C | 37% | 1009.4 hPa | 0 mm | - | - | - |
| 1778006701 | 13.33° C | 39% | 1009.4 hPa | 0 mm | - | - | - |
* Rain latest hour (hover to see other rain measurements)
** Current wind speed in m/s (hover to see current wind gust speed)